CSS6839 ZGSZ-ZSWX

Flight info

Callsign CSS6839
Flight time N/A
Altitude 35100
Route OVGOT1 OVGOT R200 BEBEM A470 EMRID W135 LUPVI R343 SASAN
Aircraft B752/M-SDE2E3FGHIJ3J4J7RWXY/LB1

Departure

Time 2026-04-20 04:29
Airport Shenzhen Bao'an International Airport (ZGSZ)

Arrival

Time N/A
Airport Sunan Shuofang International Airport (ZSWX)
Time Latitude Longitude Altitude Speed Heading
2026-04-20 04:00 22.62478 113.82452 23 ft 0 kts 63°
2026-04-20 04:03 22.62473 113.82442 23 ft 2 kts 63°
2026-04-20 04:03 22.62466 113.82426 23 ft 2 kts 63°
2026-04-20 04:04 22.62460 113.82413 23 ft 1 kts 63°
2026-04-20 04:04 22.62454 113.82401 23 ft 3 kts 62°
2026-04-20 04:04 22.62441 113.82382 23 ft 2 kts 39°
2026-04-20 04:04 22.62425 113.82375 23 ft 2 kts
2026-04-20 04:05 22.62412 113.82378 23 ft 2 kts 319°
2026-04-20 04:05 22.62407 113.82384 23 ft 0 kts 315°
2026-04-20 04:05 22.62401 113.82388 23 ft 0 kts 333°
2026-04-20 04:13 22.62404 113.82387 23 ft 0 kts 333°
2026-04-20 04:13 22.62412 113.82382 23 ft 1 kts 333°
2026-04-20 04:13 22.62420 113.82378 23 ft 1 kts 336°
2026-04-20 04:14 22.62430 113.82374 23 ft 1 kts 339°
2026-04-20 04:14 22.62457 113.82364 23 ft 6 kts 342°
2026-04-20 04:14 22.62501 113.82346 23 ft 4 kts 336°
2026-04-20 04:14 22.62527 113.82333 23 ft 3 kts 334°
2026-04-20 04:15 22.62547 113.82322 23 ft 2 kts 334°
2026-04-20 04:15 22.62563 113.82313 23 ft 2 kts 333°
2026-04-20 04:15 22.62570 113.82310 23 ft 0 kts 333°
2026-04-20 04:15 22.62576 113.82306 23 ft 0 kts 333°
2026-04-20 04:17 22.62577 113.82305 23 ft 0 kts 333°
2026-04-20 04:17 22.62600 113.82293 23 ft 6 kts 332°
2026-04-20 04:18 22.62648 113.82265 23 ft 9 kts 332°
2026-04-20 04:18 22.62705 113.82235 23 ft 7 kts 334°
2026-04-20 04:18 22.62737 113.82210 23 ft 4 kts 301°
2026-04-20 04:18 22.62741 113.82189 23 ft 2 kts 269°
2026-04-20 04:19 22.62735 113.82161 23 ft 7 kts 248°
2026-04-20 04:19 22.62708 113.82102 23 ft 7 kts 251°
2026-04-20 04:19 22.62717 113.82063 23 ft 4 kts 309°
2026-04-20 04:19 22.62742 113.82043 23 ft 6 kts 329°
2026-04-20 04:20 22.62789 113.82016 23 ft 9 kts 333°
2026-04-20 04:20 22.62865 113.81974 23 ft 15 kts 333°
2026-04-20 04:20 22.62970 113.81916 23 ft 18 kts 332°
2026-04-20 04:20 22.63090 113.81851 23 ft 20 kts 333°
2026-04-20 04:21 22.63212 113.81783 23 ft 18 kts 333°
2026-04-20 04:21 22.63320 113.81724 23 ft 16 kts 333°
2026-04-20 04:21 22.63416 113.81673 23 ft 16 kts 333°
2026-04-20 04:21 22.63537 113.81606 23 ft 22 kts 333°
2026-04-20 04:22 22.63634 113.81552 23 ft 23 kts 333°
2026-04-20 04:22 22.63808 113.81457 23 ft 3 kts 333°
2026-04-20 04:22 22.63827 113.81447 23 ft 2 kts 333°
2026-04-20 04:22 22.63842 113.81435 23 ft 2 kts 317°
2026-04-20 04:23 22.63851 113.81418 23 ft 2 kts 282°
2026-04-20 04:23 22.63848 113.81394 23 ft 4 kts 249°
2026-04-20 04:23 22.63839 113.81351 23 ft 7 kts 284°
2026-04-20 04:23 22.63888 113.81303 23 ft 11 kts 333°
2026-04-20 04:24 22.63981 113.81253 23 ft 19 kts 333°
2026-04-20 04:24 22.64125 113.81173 23 ft 25 kts 334°
2026-04-20 04:24 22.64276 113.81090 23 ft 22 kts 332°
2026-04-20 04:24 22.64409 113.81019 23 ft 21 kts 333°
2026-04-20 04:25 22.64550 113.80941 23 ft 24 kts 333°
2026-04-20 04:25 22.64708 113.80855 23 ft 26 kts 333°
2026-04-20 04:25 22.64872 113.80765 23 ft 26 kts 332°
2026-04-20 04:25 22.65038 113.80674 23 ft 26 kts 333°
2026-04-20 04:26 22.65188 113.80592 23 ft 22 kts 333°
2026-04-20 04:26 22.65283 113.80540 22 ft 8 kts 333°
2026-04-20 04:26 22.65327 113.80516 23 ft 5 kts 333°
2026-04-20 04:26 22.65348 113.80496 23 ft 2 kts 300°
2026-04-20 04:27 22.65352 113.80475 23 ft 3 kts 269°
2026-04-20 04:27 22.65341 113.80438 23 ft 6 kts 246°
2026-04-20 04:27 22.65319 113.80391 23 ft 7 kts 243°
2026-04-20 04:27 22.65294 113.80347 23 ft 5 kts 221°
2026-04-20 04:28 22.65268 113.80337 23 ft 2 kts 183°
2026-04-20 04:28 22.65254 113.80340 23 ft 1 kts 162°
2026-04-20 04:28 22.65160 113.80389 23 ft 40 kts 153°
2026-04-20 04:28 22.64682 113.80653 23 ft 112 kts 154°
2026-04-20 04:29 22.63782 113.81149 46 ft 173 kts 155°
2026-04-20 04:29 22.62628 113.81785 419 ft 201 kts 154°
2026-04-20 04:29 22.61340 113.82495 1296 ft 207 kts 157°
2026-04-20 04:29 22.60003 113.83086 1917 ft 214 kts 157°
2026-04-20 04:30 22.58640 113.83758 2491 ft 221 kts 155°
2026-04-20 04:30 22.57208 113.84515 2936 ft 237 kts 154°
2026-04-20 04:30 22.55724 113.85334 3674 ft 239 kts 153°
2026-04-20 04:30 22.54238 113.86173 4370 ft 244 kts 153°
2026-04-20 04:31 22.52744 113.87026 5072 ft 246 kts 153°
2026-04-20 04:31 22.51759 113.87674 5422 ft 254 kts 141°
2026-04-20 04:31 22.50464 113.89909 5963 ft 279 kts 102°
2026-04-20 04:31 22.50529 113.92003 6655 ft 286 kts 74°
2026-04-20 04:32 22.51411 113.93948 7280 ft 293 kts 60°
2026-04-20 04:32 22.52414 113.95827 7993 ft 294 kts 63°
2026-04-20 04:32 22.53383 113.97788 8616 ft 300 kts 63°
2026-04-20 04:32 22.54350 113.99791 9267 ft 304 kts 64°
2026-04-20 04:33 22.55318 114.01825 9920 ft 307 kts 63°
2026-04-20 04:33 22.56304 114.03910 10397 ft 317 kts 63°
2026-04-20 04:33 22.57336 114.06103 10597 ft 337 kts 63°
2026-04-20 04:33 22.58426 114.08422 10790 ft 356 kts 63°
2026-04-20 04:34 22.59577 114.10879 11025 ft 372 kts 63°
2026-04-20 04:34 22.60754 114.13393 11610 ft 376 kts 63°
2026-04-20 04:34 22.61928 114.15904 12201 ft 378 kts 63°
2026-04-20 04:34 22.63116 114.18445 12733 ft 382 kts 62°
2026-04-20 04:35 22.64306 114.20993 13282 ft 384 kts 62°
2026-04-20 04:35 22.65519 114.23589 13800 ft 388 kts 62°
2026-04-20 04:35 22.66750 114.26226 14291 ft 392 kts 63°
2026-04-20 04:35 22.67968 114.28838 14800 ft 395 kts 63°
2026-04-20 04:36 22.70463 114.34192 15771 ft 401 kts 63°
2026-04-20 04:36 22.71733 114.36920 16239 ft 405 kts 63°
2026-04-20 04:36 22.72567 114.38713 16524 ft 407 kts 63°
2026-04-20 04:37 22.74277 114.42406 17139 ft 411 kts 65°
2026-04-20 04:37 22.75198 114.45316 17530 ft 415 kts 79°
2026-04-20 04:37 22.75601 114.48433 17969 ft 417 kts 83°
2026-04-20 04:37 22.75958 114.51457 18355 ft 421 kts 83°
2026-04-20 04:38 22.76310 114.54633 18811 ft 423 kts 84°
2026-04-20 04:38 22.76627 114.57790 19185 ft 427 kts 85°
2026-04-20 04:38 22.76950 114.61014 19570 ft 431 kts 85°
2026-04-20 04:38 22.77272 114.64246 20018 ft 434 kts 85°
2026-04-20 04:39 22.77595 114.67493 20362 ft 438 kts 85°
2026-04-20 04:39 22.77920 114.70779 20735 ft 441 kts 85°
2026-04-20 04:39 22.78135 114.72952 21020 ft 442 kts 85°
2026-04-20 04:39 22.78592 114.77412 21438 ft 448 kts 85°
2026-04-20 04:40 22.78949 114.80748 21842 ft 450 kts 85°
2026-04-20 04:40 22.79187 114.82988 22049 ft 452 kts 85°
2026-04-20 04:40 22.79670 114.87541 22535 ft 455 kts 85°
2026-04-20 04:40 22.79908 114.89790 22745 ft 458 kts 85°
2026-04-20 04:41 22.80395 114.94402 23225 ft 461 kts 85°
2026-04-20 04:41 22.80636 114.96693 23447 ft 463 kts 84°
2026-04-20 04:41 22.81000 115.00150 23782 ft 465 kts 84°
2026-04-20 04:41 22.81487 115.04794 24232 ft 469 kts 84°
2026-04-20 04:42 22.81854 115.08289 24581 ft 470 kts 84°
2026-04-20 04:42 22.82220 115.11797 24923 ft 472 kts 84°
2026-04-20 04:42 22.82590 115.15348 25263 ft 474 kts 84°
2026-04-20 04:42 22.82958 115.18884 25568 ft 477 kts 84°
2026-04-20 04:43 22.83331 115.22479 25898 ft 478 kts 84°
2026-04-20 04:43 22.83579 115.24863 26110 ft 480 kts 84°
2026-04-20 04:43 22.84073 115.29646 26540 ft 482 kts 84°
2026-04-20 04:43 22.84445 115.33251 26766 ft 486 kts 84°
2026-04-20 04:44 22.84696 115.35695 26996 ft 486 kts 84°
2026-04-20 04:44 22.85195 115.40552 27422 ft 488 kts 84°
2026-04-20 04:44 22.85568 115.44199 27724 ft 490 kts 84°
2026-04-20 04:44 22.85941 115.47840 27986 ft 492 kts 84°
2026-04-20 04:45 22.86315 115.51519 28273 ft 494 kts 84°
2026-04-20 04:45 22.86692 115.55225 28536 ft 496 kts 83°
2026-04-20 04:45 22.86942 115.57680 28743 ft 496 kts 83°
2026-04-20 04:45 22.87448 115.62678 29010 ft 501 kts 83°
2026-04-20 04:46 22.87827 115.66425 29333 ft 501 kts 84°
2026-04-20 04:46 22.88205 115.70183 29460 ft 506 kts 84°
2026-04-20 04:46 22.88588 115.73987 29714 ft 507 kts 84°
2026-04-20 04:46 22.88969 115.77783 29931 ft 509 kts 84°
2026-04-20 04:47 22.89346 115.81563 30141 ft 511 kts 84°
2026-04-20 04:47 22.90114 115.89217 30533 ft 514 kts 84°
2026-04-20 04:47 22.90524 115.93070 30819 ft 514 kts 83°
2026-04-20 04:48 22.90929 115.96903 31064 ft 515 kts 83°
2026-04-20 04:48 22.91202 115.99500 31169 ft 516 kts 83°
2026-04-20 04:48 22.91604 116.03308 31606 ft 512 kts 83°
2026-04-20 04:48 22.92006 116.07144 31805 ft 513 kts 83°
2026-04-20 04:49 22.92408 116.10986 32140 ft 511 kts 83°
2026-04-20 04:49 22.92943 116.16107 32377 ft 513 kts 83°
2026-04-20 04:49 22.93390 116.19881 32613 ft 513 kts 78°
2026-04-20 04:49 22.94274 116.23621 32771 ft 512 kts 69°
2026-04-20 04:50 22.95666 116.27174 32978 ft 510 kts 60°
2026-04-20 04:50 22.99785 116.33343 33392 ft 504 kts 41°
2026-04-20 04:50 23.01481 116.35031 33548 ft 500 kts 35°
2026-04-20 04:51 23.04297 116.37202 33708 ft 497 kts 26°
2026-04-20 04:51 23.07390 116.38877 33950 ft 490 kts 17°
2026-04-20 04:51 23.11647 116.40514 34201 ft 488 kts 13°
2026-04-20 04:51 23.14916 116.41640 34421 ft 487 kts 12°
2026-04-20 04:52 23.17066 116.42348 34501 ft 488 kts 12°
2026-04-20 04:52 23.21403 116.43726 34719 ft 488 kts 11°
2026-04-20 04:52 23.23595 116.44406 34885 ft 487 kts 11°
2026-04-20 04:52 23.26848 116.45403 35039 ft 483 kts 11°
2026-04-20 04:53 23.30096 116.46388 35050 ft 482 kts 10°
2026-04-20 04:53 23.36579 116.48334 35059 ft 484 kts 10°
2026-04-20 04:54 23.44168 116.50604 35059 ft 487 kts 10°
2026-04-20 04:54 23.50707 116.52559 35054 ft 485 kts 10°
2026-04-20 04:55 23.56113 116.54175 35058 ft 485 kts 10°
2026-04-20 04:55 23.63712 116.56449 35071 ft 485 kts 10°
2026-04-20 04:56 23.70274 116.58415 35073 ft 485 kts 10°
2026-04-20 04:56 23.75685 116.60037 35088 ft 485 kts 10°
2026-04-20 04:57 23.83274 116.62315 35092 ft 486 kts 10°
2026-04-20 04:57 23.88709 116.63948 35094 ft 486 kts 10°
2026-04-20 04:58 23.95264 116.65919 35075 ft 484 kts 10°
2026-04-20 04:58 24.02858 116.68205 35080 ft 486 kts 10°
2026-04-20 04:59 24.09376 116.70170 35083 ft 485 kts 10°
2026-04-20 04:59 24.15896 116.72137 35076 ft 484 kts 10°
2026-04-20 05:00 24.21298 116.73769 35073 ft 484 kts 10°
2026-04-20 05:00 24.27774 116.75726 35068 ft 485 kts 11°
2026-04-20 05:01 24.35356 116.78021 35071 ft 485 kts 11°
2026-04-20 05:01 24.41900 116.80004 35072 ft 484 kts 11°
2026-04-20 05:02 24.47296 116.81641 35076 ft 485 kts 11°
2026-04-20 05:02 24.54887 116.83946 35087 ft 484 kts 11°
2026-04-20 05:03 24.60279 116.85585 35088 ft 483 kts 11°
2026-04-20 05:03 24.67859 116.87891 35095 ft 484 kts 11°
2026-04-20 05:04 24.74371 116.89875 35103 ft 483 kts 11°
2026-04-20 05:04 24.79763 116.91521 35107 ft 483 kts 11°
2026-04-20 05:05 24.87343 116.93835 35107 ft 484 kts 11°
2026-04-20 05:05 24.93790 116.95804 35109 ft 484 kts 11°
2026-04-20 05:06 24.99222 116.97467 35103 ft 484 kts 11°
2026-04-20 05:06 25.06790 116.99784 35111 ft 484 kts 11°
2026-04-20 05:07 25.13287 117.01778 35077 ft 483 kts 11°
2026-04-20 05:07 25.18678 117.03432 35033 ft 477 kts 11°
2026-04-20 05:07 25.22798 117.04704 35015 ft 450 kts 11°
2026-04-20 05:08 25.25767 117.05622 34991 ft 436 kts 11°
2026-04-20 05:08 25.31530 117.07372 32768 ft 459 kts 11°
2026-04-20 05:08 25.34638 117.08383 27726 ft 548 kts 15°
2026-04-20 05:09 25.36898 117.09193 23111 ft 607 kts 16°
2026-04-20 05:09 25.40487 117.10474 15890 ft 620 kts 18°
2026-04-20 05:09 25.45562 117.12526 11910 ft 575 kts 21°
2026-04-20 05:09 25.48331 117.13676 16912 ft 372 kts 11°
2026-04-20 05:10 25.47871 117.13560 21001 ft 130 kts 198°
2026-04-20 05:10 25.47386 117.13560 16085 ft 365 kts 55°
2026-04-20 05:10 25.47803 117.13934 9291 ft 524 kts 33°
2026-04-20 05:10 25.49412 117.15192 2512 ft 602 kts 38°
2026-04-20 05:11 25.49438 117.15214 2437 ft 0 kts 39°
2026-04-20 05:11 25.49437 117.15214 2437 ft 0 kts 39°
2026-04-20 05:12 25.49436 117.15213 2436 ft 0 kts 39°